Change the Weather History Date:

Saturday, February 8, 2014

  Actual Average (KBJC) Record (KBJC)
Temperature  
Mean Temperature 28 °F -  
Max Temperature 47 °F 43 °F 66 °F (1999)
Min Temperature 8 °F 23 °F -2 °F (2011)
Degree Days  
Heating Degree Days 38    
Moisture  
Dew Point 18 °F    
Average Humidity 67    
Maximum Humidity 93    
Minimum Humidity 41    
Precipitation  
Precipitation 0.00 in - - ()
Sea Level Pressure  
Sea Level Pressure 29.83 in    
Wind  
Wind Speed 6 mph (WNW)    
Max Wind Speed 18 mph    
Max Gust Speed 31 mph    
Visibility 9 miles    
Events      
Averages and records for this station are not official NWS values.
T = Trace of Precipitation, MM = Missing Value Source: NWS Daily Summary

Daily Weather History Graph

Daily Weather History Graph

Search for Another Location

Airport or City:

Trip Planner

Search our weather history database for the weather conditions in past years. The results will help you decide how hot, cold, wet, or windy it might be!

Date:

Astronomy

Feb. 08, 2014 Rise Set
Actual Time 7:01 AM MST 5:27 PM MST
Civil Twilight 6:33 AM MST 5:56 PM MST
Nautical Twilight 6:01 AM MST 6:28 PM MST
Astronomical Twilight 5:29 AM MST 6:59 PM MST
Moon 12:23 PM MST (2/8) 2:16 AM MST (2/8)
Length of Visible Light 11h 22m
Length of Day
10h 26m
Waxing Gibbous, 69% of the Moon is Illuminated
Feb 8
Waxing Gibbous
Feb 14
Full
Feb 22
Last Quarter
Mar 1
New
Mar 8
First Quarter

Hourly Weather History & Observations

Time (MST) Temp. Windchill Dew Point Humidity Pressure Visibility Wind Dir Wind Speed Gust Speed Precip Events Conditions
12:14 AM 20.7 °F 11.0 °F 13.5 °F 74% 29.79 in 10.0 mi West 8.1 mph - N/A   Clear
12:34 AM 32.0 °F 25.6 °F 14.0 °F 48% 29.79 in 10.0 mi WNW 6.9 mph - N/A   Clear
12:54 AM 32.0 °F - 14.5 °F 49% 29.79 in 10.0 mi Calm Calm - N/A   Clear
1:14 AM 30.4 °F - 13.5 °F 50% 29.78 in 10.0 mi Calm Calm - N/A   Clear
1:34 AM 28.8 °F - 13.5 °F 53% 29.78 in 10.0 mi Calm Calm - N/A   Clear
1:54 AM 27.9 °F - 13.6 °F 55% 29.77 in 10.0 mi Calm Calm - N/A   Clear
2:14 AM 35.2 °F 27.6 °F 16.2 °F 46% 29.77 in 10.0 mi South 10.4 mph - N/A   Clear
2:34 AM 32.5 °F 27.1 °F 15.4 °F 49% 29.77 in 10.0 mi SSW 5.8 mph - N/A   Clear
2:54 AM 30.7 °F 23.3 °F 15.1 °F 52% 29.77 in 10.0 mi SSW 8.1 mph - N/A   Clear
3:14 AM 31.8 °F 27.3 °F 14.5 °F 49% 29.77 in 10.0 mi South 4.6 mph - N/A   Clear
3:34 AM 17.4 °F 6.2 °F 6.6 °F 63% 29.77 in 10.0 mi North 9.2 mph - N/A   Clear
3:54 AM 13.1 °F - 7.3 °F 78% 29.77 in 10.0 mi Calm Calm - N/A   Clear
4:14 AM 11.3 °F 5.1 °F 6.4 °F 81% 29.78 in 10.0 mi North 3.5 mph - N/A   Clear
4:34 AM 12.0 °F - 7.7 °F 83% 29.77 in 10.0 mi Calm Calm - N/A   Clear
4:53 AM 11.1 °F 1.7 °F 7.3 °F 85% 29.77 in 10.0 mi SW 5.8 mph - N/A   Clear
5:14 AM 11.1 °F 3.1 °F 6.8 °F 83% 29.78 in 10.0 mi NE 4.6 mph - N/A   Clear
5:34 AM 11.1 °F - 7.5 °F 85% 29.78 in 10.0 mi Calm Calm - N/A   Clear
5:54 AM 11.7 °F 1.1 °F 8.1 °F 85% 29.78 in 10.0 mi SSW 6.9 mph - N/A   Clear
6:14 AM 10.8 °F 4.5 °F 7.5 °F 87% 29.78 in 10.0 mi SSW 3.5 mph - N/A   Clear
6:34 AM 8.4 °F - 5.0 °F 86% 29.78 in 10.0 mi Calm Calm - N/A   Clear
6:54 AM 9.0 °F - 6.3 °F 89% 29.79 in 7.0 mi Calm Calm - N/A   Clear
7:14 AM 10.6 °F - 7.7 °F 88% 29.80 in 10.0 mi Calm Calm - N/A   Clear
7:34 AM 11.8 °F - 8.6 °F 87% 29.81 in 7.0 mi Calm Calm - N/A   Clear
7:54 AM 11.7 °F - 8.2 °F 86% 29.82 in 7.0 mi Calm Calm - N/A   Clear
8:14 AM 13.5 °F 5.8 °F 9.7 °F 85% 29.82 in 10.0 mi SSW 4.6 mph - N/A   Clear
8:34 AM 14.9 °F - 10.2 °F 82% 29.82 in 7.0 mi Calm Calm - N/A   Clear
8:54 AM 17.4 °F - 11.3 °F 77% 29.81 in 7.0 mi Calm Calm - N/A   Clear
9:14 AM 19.2 °F 12.5 °F 12.7 °F 76% 29.82 in 10.0 mi NNE 4.6 mph - N/A   Clear
9:34 AM 21.7 °F - 13.6 °F 71% 29.82 in 10.0 mi Calm Calm - N/A   Clear
9:54 AM 23.0 °F 18.4 °F 14.7 °F 71% 29.82 in 10.0 mi NNW 3.5 mph - N/A   Clear
10:14 AM 25.5 °F 17.8 °F 16.3 °F 68% 29.82 in 7.0 mi North 6.9 mph - N/A   Clear
10:34 AM 25.3 °F - 16.3 °F 69% 29.81 in 10.0 mi Calm Calm - N/A   Clear
10:54 AM 26.4 °F - 16.9 °F 67% 29.81 in 10.0 mi Calm Calm - N/A   Clear
11:14 AM 27.3 °F 20.9 °F 17.2 °F 66% 29.81 in 7.0 mi NNE 5.8 mph - N/A   Clear
11:34 AM 27.5 °F 22.2 °F 17.1 °F 65% 29.82 in 10.0 mi North 4.6 mph - N/A   Clear
11:54 AM 28.0 °F - 17.8 °F 65% 29.81 in 7.0 mi Calm Calm - N/A   Clear
12:14 PM 30.2 °F - 18.7 °F 62% 29.82 in 10.0 mi Calm Calm - N/A   Clear
12:34 PM 32.5 °F 29.3 °F 21.6 °F 64% 29.81 in 10.0 mi SW 3.5 mph - N/A   Clear
12:54 PM 43.5 °F 36.4 °F 27.5 °F 53% 29.79 in 10.0 mi WSW 15.0 mph 19.6 mph N/A   Clear
1:14 PM 46.6 °F - 26.8 °F 46% 29.78 in 10.0 mi WSW 11.5 mph 17.3 mph N/A   Clear
1:34 PM 47.7 °F - 25.5 °F 42% 29.78 in 10.0 mi WSW 11.5 mph 17.3 mph N/A   Clear
1:54 PM 47.5 °F - 25.0 °F 41% 29.79 in 10.0 mi West 16.1 mph 23.0 mph N/A   Clear
2:14 PM 46.6 °F - 26.4 °F 45% 29.80 in 10.0 mi West 17.3 mph 27.6 mph N/A   Clear
2:34 PM 46.4 °F 40.4 °F 26.4 °F 46% 29.79 in 10.0 mi WSW 13.8 mph 20.7 mph N/A   Clear
2:54 PM 46.9 °F - 26.4 °F 45% 29.79 in 10.0 mi WSW 12.7 mph 18.4 mph N/A   Clear
3:14 PM 46.6 °F - 26.6 °F 46% 29.79 in 10.0 mi WSW 12.7 mph - N/A   Clear
3:34 PM 46.6 °F - 27.0 °F 46% 29.79 in 10.0 mi WSW 10.4 mph - N/A   Clear
3:54 PM 45.0 °F 41.2 °F 27.5 °F 50% 29.80 in 10.0 mi West 6.9 mph - N/A   Clear
4:14 PM 45.0 °F 38.2 °F 26.4 °F 48% 29.81 in 10.0 mi West 15.0 mph - N/A   Clear
4:34 PM 44.8 °F 38.3 °F 25.9 °F 48% 29.81 in 10.0 mi WSW 13.8 mph 20.7 mph N/A   Clear
4:54 PM 43.5 °F 36.1 °F 27.3 °F 53% 29.82 in 10.0 mi West 16.1 mph 21.9 mph N/A   Clear
5:14 PM 41.9 °F 35.4 °F 28.4 °F 59% 29.82 in 10.0 mi WNW 11.5 mph - N/A   Clear
5:34 PM 40.1 °F 35.3 °F 28.9 °F 64% 29.83 in 10.0 mi WNW 6.9 mph - N/A   Clear
5:54 PM 41.0 °F 38.0 °F 27.7 °F 59% 29.84 in 10.0 mi NNW 4.6 mph - N/A   Clear
6:14 PM 40.6 °F 37.5 °F 27.1 °F 59% 29.84 in 10.0 mi NNW 4.6 mph - N/A   Clear
6:34 PM 41.5 °F 35.9 °F 27.0 °F 56% 29.85 in 10.0 mi WNW 9.2 mph - N/A   Clear
6:54 PM 40.3 °F 34.9 °F 26.6 °F 58% 29.85 in 10.0 mi West 8.1 mph - N/A   Clear
7:14 PM 41.0 °F 35.2 °F 27.3 °F 58% 29.86 in 10.0 mi WNW 9.2 mph - N/A   Clear
7:34 PM 41.0 °F 33.9 °F 27.5 °F 59% 29.87 in 10.0 mi WNW 12.7 mph - N/A   Clear
7:54 PM 40.3 °F 33.9 °F 27.5 °F 60% 29.88 in 10.0 mi WNW 10.4 mph - N/A   Clear
8:14 PM 41.5 °F 35.4 °F 27.3 °F 57% 29.88 in 10.0 mi WNW 10.4 mph 18.4 mph N/A   Clear
8:34 PM 40.8 °F 35.6 °F 27.5 °F 59% 29.89 in 10.0 mi NNW 8.1 mph - N/A   Clear
8:54 PM 39.4 °F 36.1 °F 26.4 °F 60% 29.90 in 10.0 mi NNE 4.6 mph - N/A   Clear
9:14 PM 27.1 °F 14.1 °F 22.3 °F 82% 29.94 in 10.0 mi ENE 18.4 mph 31.1 mph N/A   Clear
9:34 PM 24.3 °F 19.9 °F 21.2 °F 88% 29.97 in 10.0 mi North 3.5 mph - N/A   Scattered Clouds
9:54 PM 23.4 °F 12.8 °F 21.0 °F 91% 29.99 in 10.0 mi NE 10.4 mph 17.3 mph N/A   Overcast
10:14 PM 22.8 °F 13.6 °F 20.5 °F 91% 30.05 in 7.0 mi NNW 8.1 mph - N/A   Overcast
10:34 PM 22.1 °F 11.3 °F 20.1 °F 92% 30.05 in 7.0 mi North 10.4 mph - N/A   Overcast
10:54 PM 22.1 °F 10.6 °F 19.9 °F 91% 30.05 in 7.0 mi North 11.5 mph - N/A   Overcast
11:14 PM 22.1 °F 12.0 °F 20.1 °F 92% 30.05 in 7.0 mi North 9.2 mph - N/A   Overcast
11:34 PM 21.9 °F 11.7 °F 19.9 °F 92% 30.05 in 7.0 mi North 9.2 mph - N/A   Overcast
11:54 PM 21.7 °F 12.3 °F 19.9 °F 93% 30.04 in 5.0 mi North 8.1 mph - N/A   Overcast